Погода в Белозерске

Погода в Белозерске : погода сейчас, прогноз погоды и архив. Всё, что Вы хотите узнать о погоде в Белозерске!

Поиск расширенной информации на нашем сайте:

Другие новости

Новости СМИ2

Главная страница сайта

Новости сайта

03.07.2017

Напоминаем, что на нашем специализированном сайте Метеоцентр.Азия вы можете получить высокодетализированные автоматические прогнозы погоды по пунктам России, СНГ и мира в авиационном формате (включающие направление и скорость ветра, видимость, явления погоды, количество и форму облачности, нижнюю и верхнюю границу облачности).

Рекомендуем: серьезно купить датчик движения цена

Погода в Белозерске - сегодня

Время (UTC), дата Ветер
(°,м/с) 
Видим.   Явления Облачность Т
(°С)
Тd
(°С)
f(%) Тe
(°С)
Pmin
(гПа)
dP
(гПа)
Po
(мм)
O2
(г/м3)
Тmin Tmax R s Состояние
почвы
06 16.01.18 170 (Ю) 10 км  {снег}  10/10 360 м 
[Sc]
-4.6 -6 90 -7  1028.8  -1.1  759  312           
09 16.01.18 170 (Ю) 4000 м  слаб. снег  10/10 400 м 
[Frnb|Ns]
-4.8 -6.3 89 -7  1028.3  -0.5  759  312           
12 16.01.18 170 (Ю) 4000 м  слаб. снег  10/8 900 м средняя 
[Sc|As op]
-5.3 -7.4 85 -9  1027.3  -1  758  312           
15 16.01.18 170 (Ю) 10 км  позёмок{снег}  10/8 630 м средняя 
[Sc|As op]
-7.1 -9.2 85 -10  1026.6  -0.8  757  314    -4.5  0.4     
18 16.01.18 160 (Ю) 10 км  позёмок{снег}  10/10 600 м 
[Sc]
-7 -9.4 83 -11  1025.4  -1.2  756  314           
21 16.01.18 160 (Ю) 10 км    10/10 480 м кучево-дожд. 
[Cb calv]
-6.7 -8.8 85 -11  1024.1  -1.3  755  313           
00 17.01.18 150 (ЮВ) 10 км    9/9 600 м средняя, верхняя 
[St|As op|Cs]
-6.7 -9.9 78 -10  1023.1  -1  755  313           
03 17.01.18 140 (ЮВ) 10 км    8/8 900 м 
[Sc]
-7.5 -10.7 78 -11  1020.9  -2.2  753  313  -7.6      13  равномерный
сухой снег
100% 
06 17.01.18 140 (ЮВ) 4000 м  слаб. снег  8/8 800 м 
[Sc]
-8 -10.8 80 -12  1019.6  -1.2  752  313  -8         
09 17.01.18 140 (ЮВ) 5{11}  4000 м  слаб. ливневой снег  9/9 480 м кучево-дожд. 
[Cb calv]
-7.7 -10.6 80 -12  1018.8  -0.9  751  313           
12 17.01.18 140 (ЮВ) 5{11}  10 км  позёмок{ливн. осадки, снег}  9/9 870 м кучево-дожд. 
[Cb calv]
-7.6 -10.9 77 -12  1017  -1.7  750  312           
15 17.01.18 150 (ЮВ) 6-10{11}  4000 м  слаб. ливневой снег  10/10 630 м кучево-дожд. 
[Cb calv]
-6.4 -9.4 79 -11  1015.8  -1.2  749  310    -6.4  0.0     
18 17.01.18 140 (ЮВ) 5-10{12}  10 км  позёмок{ливн. осадки}  10/10 840 м 
[Sc]
-6.4 -9.4 79 -10  1015  -0.7  749  310           
21 17.01.18 150 (ЮВ) 5-10{11}  4000 м  слаб. снег  10/10 570 м 
[Sc]
-7 -10 79 -11  1015.5  0.5  749  311           
00 18.01.18 120 (ЮВ) 4{10}  4000 м  слаб. снег  10/10 840 м 
[Sc]
-8.1 -10.8 81 -12  1014.5  -1.2  748  312           
03 18.01.18 120 (ЮВ) 4{10}  4000 м  слаб. снег  10/6 600 м средняя 
[Sc|As trans]
-10.9 -14 78 -15  1013.2  -1.3  747  315  -10.9    0.0  13  равномерный
сухой снег
100% 
06 18.01.18 130 (ЮВ) 4{10}  4000 м  слаб. снег  10/8 630 м средняя 
[Sc|As op]
-11.4 -14.3 79 -16  1012.5  -0.7  747  315  -11.5         
09 18.01.18 140 (ЮВ) 4000 м  слаб. снег  10/6 600 м средняя 
[Sc|Ac As]
-10.5 -13.8 77 -15  1012  -0.5  746  314           
12 18.01.18 130 (ЮВ) 4000 м  слаб. снег  10/8 600 м средняя 
[Sc|As op]
-9.8 -12.9 78 -14  1010.8  -1.2  745  313           
15 18.01.18 150 (ЮВ) 4000 м  слаб. снег  10/10 800 м 
[Sc]
-8.9 -12.2 77 -13  1010.4  -0.3  745  311    -8.9  0.5     
18 18.01.18 150 (ЮВ) 10 км  {снег}  10/10 870 м 
[Sc]
-8.4 -11.6 78 -13  1010.3  -0.1  745  311           
21 18.01.18 150 (ЮВ) 10 км    10/10 600 м 
[Sc]
-7.7 -10.5 80 -11  1011.6  1.3  746  310           
00 19.01.18 150 (ЮВ) 10 км    10/10 570 м 
[Sc]
-7 -9.7 81 -11  1011.7  0.2  746  310           
03 19.01.18 150 (ЮВ) 4000 м  слаб. снег  10/8 930 м средняя 
[Sc|As op]
-6.5 -8.8 84 -9  1012.3  0.6  747  309  -8.9    0.3  13  равномерный
сухой снег
100% 
06 19.01.18 140 (ЮВ) 4000 м  снег  10/10 300 м 
[Frnb|Ns]
-5.9 -7.7 87 -9  1013.5  1.2  748  309           
Время (UTC), дата Ветер
(°,м/с) 
Видим.   Явления Облачность Т
(°С)
Тd
(°С)
f(%) Тe
(°С)
Pmin
(гПа)
dP
(гПа)
Po
(мм)
O2
(г/м3)
Тmin Tmax R s Состояние
почвы

Для получения пояснительной информации подведите курсор к названию столбца.

ПОГОДА в Белозерске - архив

Всё, что Вы хотите узнать о погоде в Белозерске - удобно и подробно!

Выберите нужную дату (начиная с 1 января 2015* года) и нажмите кнопку "Найти".
Будут отображены архивные сводки погоды по пункту Белозерск, начиная с указанной даты.


Отображать данные в формате CSV (для использования в таблицах Excel)


Внимание! Наш архив погоды предназначен исключительно для личного некоммерческого использования в познавательных целях. Если Вам необходимы официальные справки о состоянии погоды (для производственных, юридических, коммерческих и т.п. целей), обращайтесь в органы Росгидромета.

*Примечание: данная дата относится к архиву по метеостанциям СССР (Россия, СНГ, Балтия).
Архив по метеостанциям Зарубежной Европы и Азии (кроме Китая) хранится 10 дней, по другим регионам земного шара (Китай, Африка, Америка, Австралия, Океания) - 1 день.

Белозерск - район местоположения метеостанции


Название, широта, долгота, высота метеостанции:
Белозерск 60°ш. 37.8°д. 131 м над ур. моря [Российская Федерация]

Дополнительная информация

В oтличие oт бoльшинства пoгoдных сайтoв мы публикуем пoдрoбную метеoинфoрмацию в детальнoм прoфессиoнальнoм фoрмате.

Характеристики температуры и влажнoсти вoздуха измеряются на высoте 2 м в тени вдали oт зданий и деревьев.
Скoрoсть ветра измеряется на высoте 10 м (на урoвне рoста челoвека скoрoсть ветра ниже в 1.5-2 раза). Если метеoстанция нахoдится в гoрoде или в лесу, тo скoрoсть ветра занижена на 2-4 м/с пo сравнению с oткрытым местoм. Скoрoсть ветра над акватoриями крупных рек и oзёр, а также на вершинах хoлмoв на 2-5 м/с выше, чем в oбычных услoвиях.
Атмoсфернoе давление в разных тoчках местнoсти мoжет значительнo oтличаться oт давления на метеoстанции, в зависимoсти oт услoвий рельефа (при пoдъёме на 10 м давление пoнижается примернo на 1 мм рт.ст.).